| time (UTC) | temp F | wind direction | speed knots | gust knots | rain 1hr in | rain 24hr in | rain mn in | humidity % | barometer mb |
| 20260906222314 | 70 | 40 | 1.7 | 6.1 | 0.00 | 0.00 | 0.00 | 58 | 1017.9 |
| 20260906221812 | 70 | 13 | 4.3 | 6.1 | 0.00 | 0.00 | 0.00 | 59 | 1017.9 |
| 20260906221307 | 70 | 55 | 1.7 | 2.6 | 0.00 | 0.00 | 0.00 | 59 | 1017.9 |
| 20260906220802 | 70 | 32 | 2.6 | 2.6 | 0.00 | 0.00 | 0.00 | 59 | 1017.9 |
| 20260906220257 | 71 | 57 | 1.7 | 3.5 | 0.00 | 0.00 | 0.00 | 60 | 1017.9 |
| 20260906215757 | 70 | 160 | 0.9 | 2.6 | 0.00 | 0.00 | 0.00 | 61 | 1017.9 |
| 20260906215257 | 69 | 128 | 0.9 | 3.5 | 0.00 | 0.00 | 0.00 | 62 | 1017.9 |
| 20260906214754 | 69 | 23 | 1.7 | 5.2 | 0.00 | 0.00 | 0.00 | 63 | 1017.9 |
| 20260906214244 | 69 | 62 | 1.7 | 5.2 | 0.00 | 0.00 | 0.00 | 63 | 1017.9 |
| 20260906213738 | 69 | 59 | 1.7 | 6.1 | 0.00 | 0.00 | 0.00 | 64 | 1017.9 |
| 20260906213237 | 70 | 190 | 4.3 | 7.0 | 0.00 | 0.00 | 0.00 | 61 | 1017.9 |
| 20260906212734 | 70 | 103 | 0.9 | 2.6 | 0.00 | 0.00 | 0.00 | 61 | 1017.9 |
| 20260906212231 | 70 | 67 | 1.7 | 2.6 | 0.00 | 0.00 | 0.00 | 61 | 1017.9 |
| 20260906211730 | 71 | 122 | 0.9 | 5.2 | 0.00 | 0.00 | 0.00 | 61 | 1017.9 |
| 20260906211226 | 70 | 73 | 1.7 | 5.2 | 0.00 | 0.00 | 0.00 | 63 | 1017.9 |
| 20260906210720 | 69 | 281 | 2.6 | 5.2 | 0.00 | 0.00 | 0.00 | 63 | 1017.9 |
| 20260906210215 | 69 | 242 | 0.9 | 2.6 | 0.00 | 0.00 | 0.00 | 65 | 1017.9 |
| 20260906205710 | 68 | 52 | 1.7 | 5.2 | 0.00 | 0.00 | 0.00 | 66 | 1017.9 |
| 20260906205207 | 68 | 143 | 2.6 | 5.2 | 0.00 | 0.00 | 0.00 | 67 | 1017.5 |
| 20260906204706 | 69 | 39 | 1.7 | 6.1 | 0.00 | 0.00 | 0.00 | 65 | 1017.9 |
| 20260906204201 | 69 | 52 | 1.7 | 1.7 | 0.00 | 0.00 | 0.00 | 64 | 1017.9 |
| 20260906203701 | 67 | 288 | 0.9 | 6.1 | 0.00 | 0.00 | 0.00 | 69 | 1017.9 |
| 20260906203156 | 68 | 22 | 2.6 | 6.1 | 0.00 | 0.00 | 0.00 | 65 | 1017.9 |
| 20260906202653 | 68 | 283 | 3.5 | 7.8 | 0.00 | 0.00 | 0.00 | 66 | 1017.9 |
| 20260906202152 | 69 | 181 | 0.9 | 3.5 | 0.00 | 0.00 | 0.00 | 65 | 1017.9 |
| 20260906201647 | 69 | 44 | 2.6 | 3.5 | 0.00 | 0.00 | 0.00 | 64 | 1018.2 |
| 20260906201146 | 67 | 66 | 1.7 | 5.2 | 0.00 | 0.00 | 0.00 | 68 | 1017.9 |
| 20260906200642 | 69 | 317 | 1.7 | 3.5 | 0.00 | 0.00 | 0.00 | 65 | 1017.9 |
| 20260906200138 | 69 | 147 | 0.9 | 1.7 | 0.00 | 0.00 | 0.00 | 64 | 1018.2 |
| 20260906195633 | 67 | 186 | 0.0 | 3.5 | 0.00 | 0.00 | 0.00 | 66 | 1018.2 |
| 20260906195130 | 67 | 79 | 0.9 | 1.7 | 0.00 | 0.00 | 0.00 | 66 | 1018.2 |
| 20260906194625 | 68 | 348 | 5.2 | 7.8 | 0.00 | 0.00 | 0.00 | 65 | 1018.2 |
| 20260906194120 | 66 | 314 | 1.7 | 5.2 | 0.00 | 0.00 | 0.00 | 66 | 1018.2 |
| 20260906193615 | 66 | 69 | 1.7 | 6.1 | 0.00 | 0.00 | 0.00 | 67 | 1018.2 |
| 20260906193110 | 66 | 312 | 2.6 | 8.7 | 0.00 | 0.00 | 0.00 | 67 | 1018.5 |
| 20260906192606 | 66 | 284 | 2.6 | 3.5 | 0.00 | 0.00 | 0.00 | 68 | 1018.5 |
| 20260906192105 | 66 | 5 | 2.6 | 5.2 | 0.00 | 0.00 | 0.00 | 68 | 1018.5 |
| 20260906191600 | 66 | 339 | 3.5 | 7.8 | 0.00 | 0.00 | 0.00 | 67 | 1018.5 |
| 20260906191059 | 65 | 231 | 1.7 | 6.1 | 0.00 | 0.00 | 0.00 | 68 | 1018.5 |
| 20260906190559 | 67 | 136 | 1.7 | 5.2 | 0.00 | 0.00 | 0.00 | 65 | 1018.5 |
| 20260906190054 | 66 | 69 | 0.9 | 3.5 | 0.00 | 0.00 | 0.00 | 67 | 1018.5 |
| 20260906185552 | 66 | 6 | 2.6 | 5.2 | 0.00 | 0.00 | 0.00 | 67 | 1018.5 |
| 20260906185051 | 67 | 37 | 2.6 | 5.2 | 0.00 | 0.00 | 0.00 | 67 | 1018.5 |
| 20260906184547 | 68 | 283 | 1.7 | 2.6 | 0.00 | 0.00 | 0.00 | 65 | 1018.9 |
| 20260906184042 | 66 | 9 | 0.9 | 1.7 | 0.00 | 0.00 | 0.00 | 66 | 1018.5 |
| 20260906183538 | 67 | 158 | 1.7 | 5.2 | 0.00 | 0.00 | 0.00 | 66 | 1018.9 |
| 20260906183034 | 67 | 313 | 1.7 | 2.6 | 0.00 | 0.00 | 0.00 | 64 | 1018.5 |
| 20260906182529 | 66 | 112 | 0.0 | 1.7 | 0.00 | 0.00 | 0.00 | 66 | 1018.5 |
| 20260906182025 | 64 | 121 | 1.7 | 2.6 | 0.00 | 0.00 | 0.00 | 69 | 1018.9 |
| 20260906181520 | 64 | 80 | 1.7 | 5.2 | 0.00 | 0.00 | 0.00 | 70 | 1018.9 |
| 20260906181016 | 65 | 353 | 1.7 | 7.0 | 0.00 | 0.00 | 0.00 | 70 | 1018.9 |
| 20260906180511 | 64 | 45 | 1.7 | 3.5 | 0.00 | 0.00 | 0.00 | 69 | 1018.9 |
| 20260906180009 | 66 | 95 | 3.5 | 8.7 | 0.00 | 0.00 | 0.00 | 68 | 1018.9 |
| 20260906175508 | 65 | 42 | 1.7 | 3.5 | 0.00 | 0.00 | 0.00 | 67 | 1018.9 |
| 20260906175003 | 64 | 54 | 1.7 | 3.5 | 0.00 | 0.00 | 0.00 | 67 | 1018.9 |
| 20260906174501 | 65 | 60 | 1.7 | 6.1 | 0.00 | 0.00 | 0.00 | 67 | 1018.9 |
| 20260906173956 | 65 | 79 | 0.9 | 3.5 | 0.00 | 0.00 | 0.00 | 68 | 1018.9 |
| 20260906173452 | 64 | 63 | 0.9 | 2.6 | 0.00 | 0.00 | 0.00 | 69 | 1018.9 |
| 20260906172951 | 64 | 159 | 0.9 | 2.6 | 0.00 | 0.00 | 0.00 | 69 | 1018.9 |
| 20260906172448 | 62 | 45 | 1.7 | 5.2 | 0.00 | 0.00 | 0.00 | 72 | 1018.9 |
| 20260906171943 | 62 | 79 | 0.9 | 2.6 | 0.00 | 0.00 | 0.00 | 72 | 1018.9 |
| 20260906171437 | 62 | 107 | 0.9 | 7.0 | 0.00 | 0.00 | 0.00 | 73 | 1019.2 |
| 20260906170933 | 62 | 332 | 5.2 | 6.1 | 0.00 | 0.00 | 0.00 | 71 | 1018.9 |
| 20260906170429 | 62 | 332 | 1.7 | 3.5 | 0.00 | 0.00 | 0.00 | 71 | 1018.9 |
| 20260906165925 | 61 | 19 | 3.5 | 5.2 | 0.00 | 0.00 | 0.00 | 72 | 1018.9 |
| 20260906165419 | 60 | 83 | 0.9 | 2.6 | 0.00 | 0.00 | 0.00 | 73 | 1018.9 |
| 20260906164914 | 60 | 10 | 3.5 | 5.2 | 0.00 | 0.00 | 0.00 | 75 | 1019.2 |
| 20260906164412 | 59 | 29 | 2.6 | 7.8 | 0.00 | 0.00 | 0.00 | 75 | 1019.2 |
| 20260906163909 | 59 | 57 | 0.9 | 5.2 | 0.00 | 0.00 | 0.00 | 76 | 1018.9 |
| 20260906163405 | 59 | 9 | 1.7 | 6.1 | 0.00 | 0.00 | 0.00 | 77 | 1019.2 |
| 20260906162903 | 59 | 20 | 1.7 | 2.6 | 0.00 | 0.00 | 0.00 | 77 | 1018.9 |
| 20260906162401 | 58 | 81 | 0.9 | 5.2 | 0.00 | 0.00 | 0.00 | 78 | 1019.2 |
| 20260906161857 | 58 | 230 | 2.6 | 7.0 | 0.00 | 0.00 | 0.00 | 78 | 1019.2 |
| 20260906161356 | 58 | 18 | 0.9 | 2.6 | 0.00 | 0.00 | 0.00 | 78 | 1018.9 |
| 20260906160855 | 58 | 118 | 0.9 | 3.5 | 0.00 | 0.00 | 0.00 | 78 | 1019.2 |
| 20260906160349 | 58 | 76 | 0.9 | 7.0 | 0.00 | 0.00 | 0.00 | 78 | 1019.2 |
| 20260906155847 | 58 | 63 | 2.6 | 7.0 | 0.00 | 0.00 | 0.00 | 78 | 1019.2 |
| 20260906155341 | 58 | 318 | 7.8 | 12.2 | 0.00 | 0.00 | 0.00 | 78 | 1019.2 |
| 20260906154838 | 57 | 59 | 0.9 | 6.1 | 0.00 | 0.00 | 0.00 | 79 | 1018.9 |
| 20260906154332 | 57 | 49 | 0.9 | 3.5 | 0.00 | 0.00 | 0.00 | 79 | 1018.9 |
| 20260906153830 | 57 | 357 | 1.7 | 3.5 | 0.00 | 0.00 | 0.00 | 79 | 1018.9 |
| 20260906153330 | 57 | 82 | 1.7 | 3.5 | 0.00 | 0.00 | 0.00 | 79 | 1018.9 |
| 20260906152825 | 56 | 330 | 1.7 | 6.1 | 0.00 | 0.00 | 0.00 | 79 | 1019.2 |
| 20260906152320 | 56 | 35 | 0.9 | 5.2 | 0.00 | 0.00 | 0.00 | 80 | 1018.9 |
| 20260906151819 | 56 | 356 | 1.7 | 2.6 | 0.00 | 0.00 | 0.00 | 80 | 1018.9 |
| 20260906151315 | 56 | 60 | 0.9 | 1.7 | 0.00 | 0.00 | 0.00 | 80 | 1018.9 |
| 20260906150811 | 56 | 350 | 1.7 | 2.6 | 0.00 | 0.00 | 0.00 | 80 | 1018.9 |
| 20260906150307 | 56 | 35 | 0.9 | 3.5 | 0.00 | 0.00 | 0.00 | 80 | 1019.2 |
| 20260906145805 | 56 | 3 | 2.6 | 5.2 | 0.00 | 0.00 | 0.00 | 80 | 1018.9 |
| 20260906145306 | 56 | 74 | 2.6 | 5.2 | 0.00 | 0.00 | 0.00 | 80 | 1018.9 |
| 20260906144759 | 55 | 265 | 1.7 | 5.2 | 0.00 | 0.00 | 0.00 | 80 | 1018.9 |
| 20260906144254 | 55 | 4 | 1.7 | 1.7 | 0.00 | 0.00 | 0.00 | 80 | 1018.9 |
| 20260906143754 | 55 | 66 | 1.7 | 6.1 | 0.00 | 0.00 | 0.00 | 80 | 1018.5 |
| 20260906143251 | 55 | 47 | 0.9 | 1.7 | 0.00 | 0.00 | 0.00 | 80 | 1018.9 |
| 20260906142750 | 54 | 80 | 1.7 | 3.5 | 0.00 | 0.00 | 0.00 | 80 | 1018.9 |
| 20260906142246 | 54 | 82 | 0.9 | 2.6 | 0.00 | 0.00 | 0.00 | 79 | 1018.9 |
| 20260906141744 | 54 | 56 | 0.9 | 1.7 | 0.00 | 0.00 | 0.00 | 80 | 1018.9 |
| 20260906141239 | 54 | 87 | 0.9 | 1.7 | 0.00 | 0.00 | 0.00 | 80 | 1018.9 |
| 20260906140738 | 54 | 86 | 1.7 | 2.6 | 0.00 | 0.00 | 0.00 | 81 | 1018.9 |
| 20260906140234 | 53 | 35 | 0.9 | 1.7 | 0.00 | 0.00 | 0.00 | 82 | 1018.9 |
| 20260906135730 | 53 | 17 | 0.9 | 2.6 | 0.00 | 0.00 | 0.00 | 82 | 1018.9 |
| 20260906135227 | 53 | 59 | 0.9 | 1.7 | 0.00 | 0.00 | 0.00 | 82 | 1018.9 |
| 20260906134722 | 53 | 93 | 0.9 | 2.6 | 0.00 | 0.00 | 0.00 | 82 | 1018.5 |
| 20260906134217 | 53 | 87 | 0.0 | 1.7 | 0.00 | 0.00 | 0.00 | 83 | 1018.5 |
| 20260906133713 | 53 | 80 | 0.9 | 2.6 | 0.00 | 0.00 | 0.00 | 83 | 1018.5 |
| 20260906133208 | 53 | 20 | 1.7 | 1.7 | 0.00 | 0.00 | 0.00 | 83 | 1018.5 |
| 20260906132703 | 53 | 96 | 0.0 | 0.9 | 0.00 | 0.00 | 0.00 | 83 | 1018.5 |
| 20260906132159 | 53 | 99 | 0.0 | 0.9 | 0.00 | 0.00 | 0.00 | 83 | 1018.9 |
| 20260906131654 | 53 | 98 | 0.9 | 0.9 | 0.00 | 0.00 | 0.00 | 83 | 1018.5 |
| 20260906131149 | 53 | 91 | 0.9 | 0.9 | 0.00 | 0.00 | 0.00 | 83 | 1018.9 |
| 20260906130643 | 53 | 69 | 0.9 | 0.9 | 0.00 | 0.00 | 0.00 | 82 | 1018.5 |
| 20260906130139 | 53 | 96 | 0.9 | 1.7 | 0.00 | 0.00 | 0.00 | 82 | 1018.5 |
| 20260906125631 | 53 | 61 | 0.9 | 1.7 | 0.00 | 0.00 | 0.00 | 82 | 1018.5 |
| 20260906125130 | 53 | 304 | 1.7 | 2.6 | 0.00 | 0.00 | 0.00 | 83 | 1018.5 |
| 20260906124626 | 53 | 336 | 0.9 | 3.5 | 0.00 | 0.00 | 0.00 | 82 | 1018.5 |
| 20260906124121 | 53 | 97 | 0.9 | 3.5 | 0.00 | 0.00 | 0.00 | 82 | 1018.5 |
| 20260906123620 | 53 | 5 | 0.9 | 1.7 | 0.00 | 0.00 | 0.00 | 82 | 1018.5 |
| 20260906123115 | 54 | 72 | 0.9 | 1.7 | 0.00 | 0.00 | 0.00 | 82 | 1018.5 |
| 20260906122614 | 54 | 59 | 0.9 | 0.9 | 0.00 | 0.00 | 0.00 | 82 | 1018.5 |
| 20260906122110 | 54 | 99 | 0.0 | 5.2 | 0.00 | 0.00 | 0.00 | 81 | 1018.5 |
| 20260906121606 | 54 | 100 | 0.9 | 3.5 | 0.00 | 0.00 | 0.00 | 81 | 1018.5 |
| 20260906121103 | 54 | 351 | 1.7 | 2.6 | 0.00 | 0.00 | 0.00 | 81 | 1018.5 |
| 20260906120557 | 54 | 87 | 0.9 | 3.5 | 0.00 | 0.00 | 0.00 | 81 | 1018.9 |
| 20260906120054 | 54 | 86 | 0.9 | 1.7 | 0.00 | 0.00 | 0.00 | 81 | 1018.9 |
| 20260906115549 | 54 | 328 | 0.9 | 1.7 | 0.00 | 0.00 | 0.00 | 82 | 1019.2 |
| 20260906115044 | 54 | 77 | 0.9 | 0.9 | 0.00 | 0.00 | 0.00 | 82 | 1018.9 |
| 20260906114544 | 54 | 303 | 1.7 | 1.7 | 0.00 | 0.00 | 0.00 | 83 | 1018.9 |
| 20260906114039 | 55 | 84 | 0.0 | 0.9 | 0.00 | 0.00 | 0.00 | 82 | 1018.9 |
| 20260906113538 | 55 | 81 | 0.9 | 1.7 | 0.00 | 0.00 | 0.00 | 82 | 1018.9 |
| 20260906113034 | 55 | 19 | 0.9 | 1.7 | 0.00 | 0.00 | 0.00 | 82 | 1018.9 |
| 20260906112528 | 55 | 284 | 1.7 | 1.7 | 0.00 | 0.00 | 0.00 | 82 | 1018.9 |
| 20260906112025 | 55 | 52 | 1.7 | 1.7 | 0.00 | 0.00 | 0.00 | 83 | 1018.9 |
| 20260906111524 | 55 | 106 | 0.9 | 1.7 | 0.00 | 0.00 | 0.00 | 83 | 1018.9 |
| 20260906111020 | 55 | 65 | 0.9 | 1.7 | 0.00 | 0.00 | 0.00 | 83 | 1019.2 |
| 20260906110514 | 55 | 343 | 1.7 | 2.6 | 0.00 | 0.00 | 0.00 | 83 | 1018.9 |
| 20260906110008 | 55 | 94 | 0.9 | 2.6 | 0.00 | 0.00 | 0.00 | 83 | 1018.9 |
| 20260906105503 | 55 | 49 | 0.0 | 1.7 | 0.00 | 0.00 | 0.00 | 82 | 1018.9 |
| 20260906104959 | 55 | 43 | 0.9 | 2.6 | 0.00 | 0.00 | 0.00 | 82 | 1018.9 |
| 20260906104458 | 55 | 342 | 2.6 | 2.6 | 0.00 | 0.00 | 0.00 | 82 | 1018.9 |
| 20260906103957 | 55 | 354 | 1.7 | 2.6 | 0.00 | 0.00 | 0.00 | 83 | 1018.9 |
| 20260906103455 | 55 | 99 | 0.0 | 1.7 | 0.00 | 0.00 | 0.00 | 83 | 1018.9 |
| 20260906102951 | 55 | 96 | 0.9 | 0.9 | 0.00 | 0.00 | 0.00 | 83 | 1018.5 |
| 20260906102451 | 55 | 97 | 0.0 | 1.7 | 0.00 | 0.00 | 0.00 | 83 | 1018.9 |
| 20260906101945 | 55 | 344 | 2.6 | 2.6 | 0.00 | 0.00 | 0.00 | 83 | 1018.9 |
| 20260906101440 | 55 | 75 | 0.9 | 1.7 | 0.00 | 0.00 | 0.00 | 83 | 1019.2 |
| 20260906100935 | 55 | 111 | 0.9 | 1.7 | 0.00 | 0.00 | 0.00 | 82 | 1018.9 |
| 20260906100435 | 55 | 80 | 0.0 | 1.7 | 0.00 | 0.00 | 0.00 | 82 | 1018.9 |
| 20260906095930 | 55 | 100 | 0.9 | 0.9 | 0.00 | 0.00 | 0.00 | 82 | 1018.9 |
| 20260906095425 | 55 | 94 | 0.9 | 1.7 | 0.00 | 0.00 | 0.00 | 81 | 1018.9 |
| 20260906094920 | 55 | 66 | 0.9 | 1.7 | 0.00 | 0.00 | 0.00 | 81 | 1018.9 |
| 20260906094415 | 55 | 76 | 0.9 | 1.7 | 0.00 | 0.00 | 0.00 | 81 | 1018.9 |
| 20260906093911 | 55 | 32 | 0.9 | 1.7 | 0.00 | 0.00 | 0.00 | 81 | 1018.9 |
| 20260906093407 | 55 | 56 | 0.0 | 1.7 | 0.00 | 0.00 | 0.00 | 81 | 1018.9 |
| 20260906092906 | 56 | 355 | 2.6 | 6.1 | 0.00 | 0.00 | 0.00 | 81 | 1018.9 |
| 20260906092401 | 56 | 95 | 0.0 | 1.7 | 0.00 | 0.00 | 0.00 | 81 | 1018.9 |
| 20260906091856 | 56 | 57 | 0.9 | 2.6 | 0.00 | 0.00 | 0.00 | 81 | 1019.2 |
| 20260906091352 | 56 | 54 | 0.9 | 1.7 | 0.00 | 0.00 | 0.00 | 81 | 1018.9 |
| 20260906090849 | 56 | 54 | 1.7 | 5.2 | 0.00 | 0.00 | 0.00 | 82 | 1018.9 |
| 20260906090348 | 56 | 88 | 0.9 | 5.2 | 0.00 | 0.00 | 0.00 | 82 | 1018.9 |
| 20260906085842 | 55 | 105 | 0.9 | 1.7 | 0.00 | 0.00 | 0.00 | 83 | 1019.2 |
| 20260906085336 | 55 | 18 | 0.9 | 1.7 | 0.00 | 0.00 | 0.00 | 83 | 1019.2 |
| 20260906084831 | 56 | 86 | 0.9 | 1.7 | 0.00 | 0.00 | 0.00 | 82 | 1019.2 |
| 20260906084331 | 56 | 107 | 0.0 | 1.7 | 0.00 | 0.00 | 0.00 | 82 | 1019.2 |
| 20260906083825 | 56 | 334 | 1.7 | 2.6 | 0.00 | 0.00 | 0.00 | 82 | 1019.2 |
| 20260906083321 | 56 | 97 | 0.9 | 2.6 | 0.00 | 0.00 | 0.00 | 83 | 1019.2 |
| 20260906082815 | 56 | 148 | 0.9 | 1.7 | 0.00 | 0.00 | 0.00 | 83 | 1019.6 |
| 20260906082310 | 56 | 12 | 1.7 | 1.7 | 0.00 | 0.00 | 0.00 | 83 | 1019.6 |
| 20260906081806 | 56 | 92 | 0.9 | 2.6 | 0.00 | 0.00 | 0.00 | 83 | 1019.6 |
| 20260906081302 | 55 | 40 | 0.9 | 1.7 | 0.00 | 0.00 | 0.00 | 83 | 1019.6 |
| 20260906080758 | 55 | 76 | 0.9 | 1.7 | 0.00 | 0.00 | 0.00 | 84 | 1019.6 |
| 20260906080254 | 55 | 92 | 0.0 | 1.7 | 0.00 | 0.00 | 0.00 | 84 | 1019.6 |
| 20260906075753 | 55 | 102 | 0.0 | 0.9 | 0.00 | 0.00 | 0.00 | 83 | 1019.6 |
| 20260906075252 | 56 | 340 | 2.6 | 3.5 | 0.00 | 0.00 | 0.00 | 83 | 1019.6 |
| 20260906074748 | 56 | 98 | 0.9 | 1.7 | 0.00 | 0.00 | 0.00 | 83 | 1019.6 |
| 20260906074247 | 56 | 12 | 0.9 | 3.5 | 0.00 | 0.00 | 0.00 | 83 | 1019.2 |
| 20260906073748 | 55 | 12 | 2.6 | 5.2 | 0.00 | 0.00 | 0.00 | 83 | 1019.6 |
| 20260906073248 | 55 | 330 | 0.9 | 2.6 | 0.00 | 0.00 | 0.00 | 84 | 1019.6 |
| 20260906072743 | 55 | 75 | 0.0 | 0.9 | 0.00 | 0.00 | 0.00 | 84 | 1019.6 |
| 20260906072239 | 55 | 94 | 0.9 | 1.7 | 0.00 | 0.00 | 0.00 | 84 | 1019.6 |
| 20260906071735 | 55 | 70 | 0.0 | 1.7 | 0.00 | 0.00 | 0.00 | 83 | 1019.6 |
| 20260906071235 | 55 | 79 | 0.9 | 2.6 | 0.00 | 0.00 | 0.00 | 83 | 1019.6 |
| 20260906070731 | 55 | 54 | 0.9 | 2.6 | 0.00 | 0.00 | 0.00 | 83 | 1019.6 |
| 20260906070227 | 55 | 86 | 0.9 | 2.6 | 0.00 | 0.00 | 0.00 | 83 | 1019.6 |
| 20260906065726 | 55 | 87 | 0.9 | 1.7 | 0.00 | 0.00 | 0.00 | 83 | 1019.6 |
| 20260906065222 | 55 | 305 | 1.7 | 2.6 | 0.00 | 0.00 | 0.00 | 84 | 1019.6 |
| 20260906064717 | 55 | 100 | 0.0 | 0.9 | 0.00 | 0.00 | 0.00 | 83 | 1019.6 |
| 20260906064213 | 56 | 194 | 0.9 | 1.7 | 0.00 | 0.00 | 0.00 | 83 | 1019.6 |
| 20260906063708 | 56 | 86 | 0.0 | 5.2 | 0.00 | 0.00 | 0.00 | 83 | 1019.6 |
| 20260906063203 | 56 | 357 | 0.9 | 2.6 | 0.00 | 0.00 | 0.00 | 83 | 1019.6 |
| 20260906062659 | 56 | 82 | 1.7 | 1.7 | 0.00 | 0.00 | 0.00 | 83 | 1019.6 |
| 20260906062158 | 56 | 47 | 0.9 | 3.5 | 0.00 | 0.00 | 0.00 | 82 | 1019.6 |
| 20260906061654 | 56 | 331 | 1.7 | 3.5 | 0.00 | 0.00 | 0.00 | 82 | 1019.6 |
| 20260906061149 | 56 | 95 | 0.0 | 1.7 | 0.00 | 0.00 | 0.00 | 82 | 1019.9 |
| 20260906060645 | 57 | 90 | 0.9 | 1.7 | 0.00 | 0.00 | 0.00 | 81 | 1019.6 |
| 20260906060142 | 57 | 106 | 0.0 | 0.9 | 0.00 | 0.00 | 0.00 | 81 | 1019.6 |
| 20260906055638 | 57 | 34 | 1.7 | 1.7 | 0.00 | 0.00 | 0.00 | 80 | 1019.6 |
| 20260906055133 | 57 | 94 | 0.0 | 3.5 | 0.00 | 0.00 | 0.00 | 80 | 1019.6 |
| 20260906054628 | 58 | 85 | 0.9 | 2.6 | 0.00 | 0.00 | 0.00 | 79 | 1019.9 |
| 20260906054123 | 58 | 338 | 1.7 | 1.7 | 0.00 | 0.00 | 0.00 | 79 | 1019.9 |
| 20260906053620 | 58 | 86 | 0.9 | 0.9 | 0.00 | 0.00 | 0.00 | 77 | 1019.9 |
| 20260906053119 | 59 | 78 | 0.9 | 0.9 | 0.00 | 0.00 | 0.00 | 76 | 1019.9 |
| 20260906052615 | 59 | 87 | 0.0 | 0.9 | 0.00 | 0.00 | 0.00 | 75 | 1019.9 |
| 20260906052112 | 59 | 102 | 0.0 | 2.6 | 0.00 | 0.00 | 0.00 | 75 | 1019.9 |
| 20260906051608 | 58 | 79 | 0.9 | 3.5 | 0.00 | 0.00 | 0.00 | 76 | 1019.9 |
| 20260906051057 | 58 | 97 | 0.9 | 1.7 | 0.00 | 0.00 | 0.00 | 76 | 1019.9 |
| 20260906050552 | 58 | 101 | 0.9 | 1.7 | 0.00 | 0.00 | 0.00 | 77 | 1019.9 |
| 20260906050048 | 59 | 81 | 0.9 | 0.9 | 0.00 | 0.00 | 0.00 | 76 | 1019.9 |
| 20260906045546 | 59 | 102 | 0.0 | 0.0 | 0.00 | 0.00 | 0.00 | 76 | 1019.9 |
| 20260906045041 | 59 | 118 | 0.0 | 1.7 | 0.00 | 0.00 | 0.00 | 76 | 1019.9 |
| 20260906044531 | 59 | 102 | 0.0 | 0.9 | 0.00 | 0.00 | 0.00 | 76 | 1019.9 |
| 20260906044026 | 59 | 100 | 0.0 | 0.9 | 0.00 | 0.00 | 0.00 | 76 | 1019.9 |
| 20260906043522 | 58 | 99 | 0.0 | 0.9 | 0.00 | 0.00 | 0.00 | 77 | 1019.9 |
| 20260906043019 | 58 | 105 | 0.0 | 0.9 | 0.00 | 0.00 | 0.00 | 77 | 1019.9 |
| 20260906042516 | 58 | 104 | 0.0 | 0.0 | 0.00 | 0.00 | 0.00 | 77 | 1019.9 |
| 20260906042011 | 58 | 104 | 0.0 | 0.0 | 0.00 | 0.00 | 0.00 | 77 | 1020.2 |
| 20260906041508 | 58 | 112 | 0.0 | 1.7 | 0.00 | 0.00 | 0.00 | 77 | 1020.2 |
| 20260906041007 | 59 | 117 | 0.0 | 0.0 | 0.00 | 0.00 | 0.00 | 77 | 1020.2 |
| 20260906040502 | 59 | 120 | 0.0 | 0.0 | 0.00 | 0.00 | 0.00 | 76 | 1020.2 |
| 20260906035957 | 59 | 109 | 0.0 | 0.9 | 0.00 | 0.00 | 0.00 | 76 | 1020.2 |
| 20260906035452 | 59 | 105 | 0.0 | 0.0 | 0.00 | 0.00 | 0.00 | 77 | 1020.2 |
| 20260906034949 | 59 | 109 | 0.0 | 0.9 | 0.00 | 0.00 | 0.00 | 77 | 1020.2 |
| 20260906034448 | 59 | 101 | 0.0 | 0.9 | 0.00 | 0.00 | 0.00 | 77 | 1020.2 |
| 20260906033938 | 59 | 96 | 0.0 | 0.9 | 0.00 | 0.00 | 0.00 | 78 | 1020.2 |
| 20260906033432 | 59 | 109 | 0.0 | 0.9 | 0.00 | 0.00 | 0.00 | 78 | 1020.2 |
| 20260906032928 | 59 | 105 | 0.0 | 0.9 | 0.00 | 0.00 | 0.00 | 79 | 1020.2 |
| 20260906032425 | 58 | 145 | 0.0 | 2.6 | 0.00 | 0.00 | 0.00 | 79 | 1020.2 |
| 20260906031918 | 58 | 75 | 0.0 | 0.9 | 0.00 | 0.00 | 0.00 | 80 | 1020.2 |
| 20260906031414 | 58 | 95 | 0.0 | 2.6 | 0.00 | 0.00 | 0.00 | 80 | 1020.2 |
| 20260906030909 | 58 | 98 | 0.0 | 0.9 | 0.00 | 0.00 | 0.00 | 80 | 1020.2 |
| 20260906030404 | 58 | 48 | 0.9 | 0.9 | 0.00 | 0.00 | 0.00 | 80 | 1020.2 |
| 20260906025859 | 59 | 103 | 0.0 | 2.6 | 0.00 | 0.00 | 0.00 | 79 | 1020.6 |
| 20260906025358 | 59 | 85 | 0.0 | 0.9 | 0.00 | 0.00 | 0.00 | 79 | 1020.2 |
| 20260906024857 | 59 | 101 | 0.0 | 0.9 | 0.00 | 0.00 | 0.00 | 79 | 1020.2 |
| 20260906024357 | 59 | 295 | 0.9 | 1.7 | 0.00 | 0.00 | 0.00 | 78 | 1020.2 |
| 20260906023852 | 60 | 106 | 0.9 | 1.7 | 0.00 | 0.00 | 0.00 | 78 | 1020.2 |
| 20260906023349 | 60 | 352 | 0.9 | 2.6 | 0.00 | 0.00 | 0.00 | 77 | 1020.2 |
| 20260906022849 | 62 | 9 | 1.7 | 2.6 | 0.00 | 0.00 | 0.00 | 73 | 1020.6 |
| 20260906022344 | 63 | 44 | 2.6 | 6.1 | 0.00 | 0.00 | 0.00 | 71 | 1020.2 |
| 20260906021840 | 64 | 20 | 0.9 | 1.7 | 0.00 | 0.00 | 0.00 | 67 | 1020.2 |
| 20260906021339 | 64 | 276 | 3.5 | 5.2 | 0.00 | 0.00 | 0.00 | 66 | 1019.9 |
| 20260906020834 | 65 | 106 | 0.0 | 0.9 | 0.00 | 0.00 | 0.00 | 64 | 1020.2 |
| 20260906020333 | 65 | 107 | 0.9 | 2.6 | 0.00 | 0.00 | 0.00 | 63 | 1019.9 |
| 20260906015828 | 65 | 89 | 0.9 | 1.7 | 0.00 | 0.00 | 0.00 | 63 | 1019.9 |
| 20260906015326 | 66 | 104 | 1.7 | 2.6 | 0.00 | 0.00 | 0.00 | 62 | 1019.9 |
| 20260906014821 | 66 | 214 | 1.7 | 2.6 | 0.00 | 0.00 | 0.00 | 61 | 1019.9 |
| 20260906014316 | 67 | 95 | 0.0 | 0.9 | 0.00 | 0.00 | 0.00 | 60 | 1019.6 |
| 20260906013812 | 67 | 159 | 0.9 | 0.9 | 0.00 | 0.00 | 0.00 | 59 | 1019.9 |
| 20260906013307 | 67 | 90 | 0.9 | 0.9 | 0.00 | 0.00 | 0.00 | 58 | 1019.9 |
| 20260906012803 | 67 | 104 | 0.0 | 1.7 | 0.00 | 0.00 | 0.00 | 58 | 1019.9 |
| 20260906012258 | 68 | 68 | 0.9 | 2.6 | 0.00 | 0.00 | 0.00 | 58 | 1019.6 |
| 20260906011752 | 68 | 70 | 1.7 | 1.7 | 0.00 | 0.00 | 0.00 | 58 | 1019.6 |
| 20260906011251 | 68 | 67 | 0.9 | 3.5 | 0.00 | 0.00 | 0.00 | 57 | 1019.6 |
| 20260906010747 | 69 | 319 | 1.7 | 1.7 | 0.00 | 0.00 | 0.00 | 57 | 1019.6 |
| 20260906010244 | 70 | 98 | 0.9 | 1.7 | 0.00 | 0.00 | 0.00 | 56 | 1019.6 |
| 20260906005738 | 69 | 110 | 0.9 | 1.7 | 0.00 | 0.00 | 0.00 | 57 | 1019.6 |
| 20260906005237 | 69 | 109 | 0.9 | 1.7 | 0.00 | 0.00 | 0.00 | 57 | 1019.6 |
| 20260906004731 | 69 | 109 | 0.9 | 3.5 | 0.00 | 0.00 | 0.00 | 57 | 1019.6 |
| 20260906004226 | 69 | 345 | 0.9 | 1.7 | 0.00 | 0.00 | 0.00 | 57 | 1019.6 |
| 20260906003722 | 69 | 200 | 2.6 | 3.5 | 0.00 | 0.00 | 0.00 | 57 | 1019.6 |
| 20260906003217 | 71 | 145 | 0.0 | 1.7 | 0.00 | 0.00 | 0.00 | 54 | 1019.2 |
| 20260906002711 | 71 | 121 | 0.0 | 1.7 | 0.00 | 0.00 | 0.00 | 55 | 1019.2 |
| 20260906002201 | 72 | 38 | 1.7 | 2.6 | 0.00 | 0.00 | 0.00 | 53 | 1019.2 |
| 20260906001656 | 73 | 2 | 0.9 | 1.7 | 0.00 | 0.00 | 0.00 | 48 | 1019.2 |
| 20260906001156 | 72 | 105 | 0.9 | 1.7 | 0.00 | 0.00 | 0.00 | 49 | 1019.2 |
| 20260906000652 | 72 | 184 | 1.7 | 1.7 | 0.00 | 0.00 | 0.00 | 50 | 1019.2 |
| 20260906000147 | 73 | 112 | 2.6 | 5.2 | 0.00 | 0.00 | 0.00 | 51 | 1019.2 |
| 20260905235646 | 72 | 177 | 1.7 | 3.5 | 0.00 | 0.00 | 0.00 | 51 | 1019.2 |
| 20260905235141 | 72 | 167 | 2.6 | 2.6 | 0.00 | 0.00 | 0.00 | 51 | 1019.2 |
| 20260905234636 | 71 | 122 | 0.0 | 3.5 | 0.00 | 0.00 | 0.00 | 52 | 1019.2 |
| 20260905234131 | 70 | 100 | 2.6 | 5.2 | 0.00 | 0.00 | 0.00 | 53 | 1019.2 |
| 20260905233626 | 71 | 94 | 4.3 | 6.1 | 0.00 | 0.00 | 0.00 | 52 | 1019.2 |
| 20260905233120 | 72 | 82 | 1.7 | 7.0 | 0.00 | 0.00 | 0.00 | 52 | 1019.2 |
| 20260905232616 | 71 | 107 | 0.9 | 1.7 | 0.00 | 0.00 | 0.00 | 53 | 1019.2 |
| 20260905232111 | 71 | 103 | 0.9 | 1.7 | 0.00 | 0.00 | 0.00 | 54 | 1019.2 |
| 20260905231606 | 72 | 174 | 2.6 | 2.6 | 0.00 | 0.00 | 0.00 | 53 | 1019.2 |
| 20260905231102 | 72 | 154 | 1.7 | 2.6 | 0.00 | 0.00 | 0.00 | 53 | 1019.6 |
| 20260905230602 | 73 | 101 | 1.7 | 1.7 | 0.00 | 0.00 | 0.00 | 52 | 1019.6 |
| 20260905230100 | 72 | 110 | 0.0 | 1.7 | 0.00 | 0.00 | 0.00 | 54 | 1019.6 |
| 20260905225554 | 71 | 110 | 0.9 | 2.6 | 0.00 | 0.00 | 0.00 | 56 | 1019.6 |
| 20260905225049 | 71 | 115 | 0.9 | 1.7 | 0.00 | 0.00 | 0.00 | 55 | 1019.6 |
| 20260905224544 | 71 | 122 | 0.9 | 1.7 | 0.00 | 0.00 | 0.00 | 56 | 1019.6 |
| 20260905224043 | 72 | 95 | 1.7 | 3.5 | 0.00 | 0.00 | 0.00 | 55 | 1019.6 |
| 20260905223541 | 71 | 85 | 0.9 | 1.7 | 0.00 | 0.00 | 0.00 | 56 | 1019.6 |
| 20260905223037 | 70 | 98 | 0.9 | 1.7 | 0.00 | 0.00 | 0.00 | 57 | 1019.6 |
| 20260905222537 | 71 | 49 | 1.7 | 2.6 | 0.00 | 0.00 | 0.00 | 56 | 1019.6 |